PBO Station Position Time Series. Reference Frame : NAM14
Format Version,1.1.0
4-character ID,P196
Station name,MeachumLflCN2006
Begin Date, 2006-04-21
End Date, 2019-10-07
Release Date, 2019-10-08
Reference position, 38.2981441930 North Latitude, -122.7426429209 East Longitude, 90.53453 meters elevation,
Date, North (mm), East (mm), Vertical (mm), North Std. Deviation (mm), East Std. Deviation (mm),              Vertical Std. Deviation (mm), Quality,
2006-04-21,0.00, 0.00, 0.00, 1.98, 1.57, 7.30, repro,
2006-04-22,0.38, -0.02, 4.54, 2.02, 1.62, 7.47, repro,
2006-04-23,1.24, -0.32, 3.25, 2.06, 1.68, 7.58, repro,
2006-04-24,0.52, 0.56, 3.30, 2.07, 1.71, 7.71, repro,
2006-04-25,0.72, -0.37, 3.20, 2.07, 1.68, 7.63, repro,
2006-04-26,0.16, -0.40, 1.73, 2.04, 1.64, 7.55, repro,
2006-04-27,0.09, -0.08, -1.10, 2.08, 1.64, 7.57, repro,
2006-04-28,0.80, -0.30, -1.00, 2.06, 1.59, 7.41, repro,
2006-04-29,-0.16, -0.25, 8.83, 1.99, 1.57, 7.28, repro,
2006-04-30,1.09, 0.35, 0.26, 1.99, 1.56, 7.28, repro,
2006-05-01,0.31, -0.79, 0.82, 1.99, 1.57, 7.28, repro,
2006-05-02,-0.98, -1.34, 0.69, 1.97, 1.55, 7.20, repro,
2006-05-03,0.21, -1.26, 1.12, 1.97, 1.56, 7.23, repro,
2006-05-04,0.23, -1.29, -0.23, 1.99, 1.57, 7.31, repro,
2006-05-05,0.04, -0.69, 3.35, 1.99, 1.56, 7.29, repro,
2006-05-06,-0.03, -0.45, 6.05, 1.98, 1.56, 7.27, repro,
2006-05-07,0.14, -1.21, 3.81, 1.99, 1.57, 7.33, repro,
2006-05-08,0.27, -0.79, 2.75, 1.98, 1.57, 7.27, repro,
2006-05-09,0.53, -0.50, 3.92, 2.06, 1.62, 7.54, repro,
2006-05-10,-0.02, -0.74, 5.52, 1.99, 1.57, 7.32, repro,
2006-05-11,-0.45, -1.32, 5.71, 1.99, 1.57, 7.31, repro,
2006-05-12,-0.21, -0.87, 5.49, 1.97, 1.55, 7.14, repro,
2006-05-13,-0.16, -1.31, 2.70, 1.98, 1.57, 7.29, repro,
2006-05-14,0.36, -1.36, 2.38, 1.98, 1.57, 7.31, repro,
2006-05-15,-0.11, -1.32, 1.70, 1.99, 1.58, 7.35, repro,
2006-05-16,-0.40, -0.92, -0.45, 2.00, 1.60, 7.38, repro,
2006-05-17,0.66, -0.45, 5.87, 2.00, 1.59, 7.37, repro,
2006-05-18,-0.74, -1.34, 7.25, 2.04, 1.57, 7.31, repro,
2006-05-19,-0.49, -2.01, 3.54, 2.11, 1.62, 7.56, repro,
2006-05-20,0.25, -1.15, 3.42, 2.07, 1.61, 7.55, repro,
2006-05-21,-2.70, -0.98, 5.41, 2.14, 1.66, 7.70, repro,
2006-05-22,-0.05, -2.19, 5.11, 2.06, 1.64, 7.50, repro,
2006-05-23,-0.91, -0.76, 8.55, 2.04, 1.58, 7.30, repro,
2006-05-24,-0.44, -1.38, 3.50, 2.04, 1.58, 7.35, repro,
2006-05-25,0.72, -0.23, 1.26, 2.17, 1.67, 7.82, repro,
2006-05-26,0.46, -2.26, 1.61, 2.11, 1.63, 7.65, repro,
2006-05-27,1.19, -1.72, 3.00, 2.04, 1.59, 7.38, repro,
2006-05-28,0.08, 0.32, 5.56, 2.06, 1.61, 7.48, repro,
2006-05-29,0.27, 0.67, 7.90, 2.07, 1.61, 7.54, repro,
2006-05-30,0.09, 0.05, 7.49, 2.11, 1.64, 7.67, repro,
2006-05-31,-0.55, 0.01, 1.65, 2.13, 1.65, 7.65, repro,
2006-06-01,-0.85, -0.17, -1.01, 2.12, 1.69, 7.77, repro,
2006-06-02,-0.03, -0.15, 4.15, 2.20, 1.69, 7.91, repro,
2006-06-03,1.03, 0.85, -0.18, 2.16, 1.68, 7.89, repro,
2006-06-04,0.66, -0.62, 7.88, 2.12, 1.63, 7.67, repro,
2006-06-05,-0.01, -0.97, 4.80, 2.10, 1.61, 7.59, repro,
2006-06-06,-0.19, -0.34, 11.94, 2.10, 1.61, 7.54, repro,
2006-06-07,-1.34, -1.19, 7.88, 2.15, 1.65, 7.76, repro,
2006-06-08,0.60, -0.55, 2.48, 2.06, 1.61, 7.49, repro,
2006-06-09,0.50, -0.45, 6.83, 2.10, 1.65, 7.68, repro,
2006-06-10,-0.38, -0.26, 7.17, 2.07, 1.62, 7.56, repro,
2006-06-11,1.07, -0.59, 10.25, 2.13, 1.66, 7.69, repro,
2006-06-12,-0.83, 0.98, 13.78, 2.18, 1.73, 7.84, repro,
2006-06-13,-0.08, 0.28, 1.68, 2.15, 1.66, 7.71, repro,
2006-06-14,0.61, 0.52, 8.24, 2.14, 1.67, 7.71, repro,
2006-06-15,0.72, -0.25, 6.75, 2.04, 1.60, 7.41, repro,
2006-06-16,0.85, -1.26, 13.24, 2.11, 1.63, 7.60, repro,
2006-06-17,0.36, 0.41, 9.21, 2.05, 1.58, 7.40, repro,
2006-06-18,-1.45, -0.22, 12.84, 2.07, 1.62, 7.55, repro,
2006-06-19,-0.69, -0.15, 7.61, 2.06, 1.64, 7.59, repro,
2006-06-20,-0.05, -0.06, 5.68, 2.06, 1.64, 7.62, repro,
2006-06-21,0.24, -0.85, 10.90, 2.06, 1.64, 7.64, repro,
2006-06-22,0.27, -0.27, 8.79, 2.08, 1.63, 7.63, repro,
2006-06-23,-0.06, -0.75, 5.24, 2.06, 1.64, 7.61, repro,
2006-06-24,-0.81, -0.48, 4.77, 2.06, 1.62, 7.53, repro,
2006-06-25,-0.34, -0.51, 1.61, 2.06, 1.64, 7.60, repro,
2006-06-26,-0.21, 0.28, 10.22, 2.10, 1.72, 7.80, repro,
2006-06-27,-0.78, -1.58, 7.02, 2.13, 1.70, 7.78, repro,
2006-06-28,-1.38, -1.56, 10.26, 2.09, 1.63, 7.66, repro,
2006-06-29,-0.44, -1.22, 9.64, 2.00, 1.60, 7.44, repro,
2006-06-30,-0.51, -0.06, 10.04, 2.03, 1.61, 7.52, repro,
2006-07-01,-0.12, -0.16, 6.62, 2.09, 1.66, 7.74, repro,
2006-07-02,0.86, -1.73, 2.80, 2.09, 1.71, 7.82, repro,
2006-07-03,-0.45, -0.02, 1.19, 2.14, 1.68, 7.85, repro,
2006-07-04,-0.35, -1.62, 1.35, 2.04, 1.59, 7.49, repro,
2006-07-05,0.51, -0.68, 4.52, 2.09, 1.63, 7.68, repro,
2006-07-06,-0.31, 0.65, -0.12, 2.08, 1.63, 7.61, repro,
2006-07-07,-0.83, -0.26, 2.02, 2.05, 1.60, 7.54, repro,
2006-07-08,-0.20, 0.84, 5.07, 2.11, 1.66, 7.77, repro,
2006-07-09,0.44, -1.94, 5.71, 2.11, 1.65, 7.80, repro,
2006-07-10,-1.23, -0.99, 4.63, 2.11, 1.63, 7.74, repro,
2006-07-11,-0.03, -1.70, 9.08, 2.02, 1.59, 7.46, repro,
2006-07-12,-0.21, -0.98, 1.28, 2.04, 1.60, 7.59, repro,
2006-07-13,-0.24, -0.69, 8.71, 2.10, 1.65, 7.75, repro,
2006-07-14,0.33, -0.82, 6.05, 2.04, 1.59, 7.53, repro,
2006-07-15,-0.84, -1.06, 7.72, 2.11, 1.65, 7.83, repro,
2006-07-16,1.08, -0.80, 5.66, 2.03, 1.60, 7.53, repro,
2006-07-17,-0.33, -0.49, 7.55, 2.12, 1.69, 7.99, repro,
2006-07-18,-0.07, -0.92, 5.44, 1.99, 1.58, 7.34, repro,
2006-07-19,0.93, -2.07, 8.78, 2.09, 1.59, 7.72, repro,
2006-07-20,0.46, -2.22, 3.67, 1.99, 1.58, 7.36, repro,
2006-07-21,1.08, -0.26, 2.57, 1.99, 1.58, 7.40, repro,
2006-07-22,-0.26, 0.46, 6.94, 2.06, 1.65, 7.59, repro,
2006-07-23,0.30, -1.06, 10.98, 1.97, 1.57, 7.22, repro,
2006-07-24,0.83, -1.18, 8.38, 1.98, 1.58, 7.29, repro,
2006-07-25,1.32, -1.28, 6.02, 2.14, 1.72, 7.89, repro,
2006-07-26,-0.63, 0.08, 10.48, 2.02, 1.62, 7.45, repro,
2006-07-27,-0.08, 0.17, 12.21, 2.03, 1.60, 7.44, repro,
2006-07-28,-0.49, -0.46, 10.50, 2.11, 1.70, 7.76, repro,
2006-07-29,-0.00, -1.21, 8.94, 2.08, 1.65, 7.64, repro,
2006-07-30,0.06, -1.21, 9.55, 2.02, 1.62, 7.46, repro,
2006-07-31,0.22, -1.64, 9.91, 1.99, 1.57, 7.30, repro,
2006-08-01,1.08, -0.65, 7.31, 1.98, 1.58, 7.31, repro,
2006-08-02,-0.31, 0.35, 9.38, 2.12, 1.72, 8.04, repro,
2006-08-03,-0.57, -1.08, 2.93, 2.05, 1.67, 7.71, repro,
2006-08-04,0.60, -1.05, 7.28, 2.13, 1.69, 7.93, repro,
2006-08-05,1.49, -0.41, 3.44, 2.06, 1.70, 7.82, repro,
2006-08-06,0.77, -0.82, 6.00, 2.01, 1.62, 7.59, repro,
2006-08-07,-0.38, 0.57, 8.50, 2.01, 1.61, 7.55, repro,
2006-08-08,0.03, -1.12, 4.66, 2.04, 1.64, 7.59, repro,
2006-08-09,0.53, -0.35, 12.12, 2.10, 1.66, 7.72, repro,
2006-08-10,-0.69, -0.19, 11.64, 2.06, 1.62, 7.64, repro,
2006-08-11,-0.11, -0.75, 11.14, 2.05, 1.62, 7.54, repro,
2006-08-12,0.41, -0.49, 8.68, 2.08, 1.66, 7.61, repro,
2006-08-13,0.08, -0.76, 13.00, 2.02, 1.62, 7.45, repro,
2006-08-14,-0.29, -1.38, 8.19, 2.02, 1.61, 7.45, repro,
2006-08-15,-0.84, -0.10, 17.56, 2.17, 1.67, 7.79, repro,
2006-08-16,1.09, -0.22, 2.61, 2.03, 1.63, 7.47, repro,
2006-08-17,0.60, -0.24, 4.21, 2.17, 1.69, 7.75, repro,
2006-08-18,-0.75, 0.45, 7.40, 2.04, 1.66, 7.51, repro,
2006-08-19,-0.01, -1.16, 5.69, 1.97, 1.58, 7.32, repro,
2006-08-20,0.49, -1.06, 8.40, 2.03, 1.60, 7.47, repro,
2006-08-21,0.10, -0.66, 8.79, 2.03, 1.63, 7.53, repro,
2006-08-22,-0.50, -0.37, 10.53, 2.03, 1.66, 7.59, repro,
2006-08-23,-0.03, -0.41, 8.59, 2.12, 1.65, 7.82, repro,
2006-08-24,0.02, -0.06, 17.04, 2.04, 1.64, 7.54, repro,
2006-08-25,0.27, 0.21, 12.17, 2.08, 1.67, 7.82, repro,
2006-08-26,0.11, -1.15, 16.97, 2.10, 1.72, 7.99, repro,
2006-08-27,0.61, -0.96, 11.27, 2.09, 1.71, 7.88, repro,
2006-08-28,-0.05, -1.37, 9.38, 2.05, 1.69, 7.79, repro,
2006-08-29,0.04, -0.75, 5.93, 2.18, 1.79, 8.31, repro,
2006-08-30,-0.03, -1.49, 6.88, 2.11, 1.73, 7.99, repro,
2006-08-31,-0.08, -1.03, 5.19, 2.06, 1.70, 7.79, repro,
2006-09-01,-0.71, -1.78, 5.84, 2.10, 1.71, 7.91, repro,
2006-09-02,-0.09, -1.56, 4.60, 2.15, 1.77, 8.04, repro,
2006-09-03,-0.54, -1.03, 5.79, 2.12, 1.73, 7.97, repro,
2006-09-04,1.11, -0.40, 5.84, 2.18, 1.76, 8.14, repro,
2006-09-05,1.27, -1.00, -1.01, 2.12, 1.72, 7.95, repro,
2006-09-06,0.98, -1.10, 3.10, 2.06, 1.69, 7.78, repro,
2006-09-07,-0.33, -0.79, 12.05, 2.10, 1.73, 7.96, repro,
2006-09-08,-1.19, -0.65, 10.77, 2.16, 1.77, 8.22, repro,
2006-09-09,-0.43, -0.44, 5.27, 2.02, 1.65, 7.53, repro,
2006-09-10,0.68, -1.11, 9.98, 2.08, 1.70, 7.81, repro,
2006-09-11,0.50, -2.14, 3.70, 2.03, 1.64, 7.52, repro,
2006-09-12,-0.07, -1.32, 7.90, 2.02, 1.63, 7.46, repro,
2006-09-13,0.38, -1.43, 9.24, 2.01, 1.63, 7.40, repro,
2006-09-14,-0.17, -2.24, 14.00, 2.12, 1.73, 7.80, repro,
2006-09-15,1.23, -2.49, 11.61, 2.05, 1.63, 7.50, repro,
2006-09-16,1.41, -1.93, 11.16, 2.00, 1.61, 7.43, repro,
2006-09-17,-0.01, -1.46, 13.59, 1.98, 1.59, 7.31, repro,
2006-09-18,-0.56, -1.38, 14.01, 2.01, 1.59, 7.35, repro,
2006-09-19,-0.47, -1.86, 11.70, 2.00, 1.61, 7.43, repro,
2006-09-20,0.36, -2.19, 7.59, 2.00, 1.63, 7.48, repro,
2006-09-21,-0.20, -2.32, 16.49, 2.07, 1.69, 7.74, repro,
2006-09-22,1.27, -1.81, 11.95, 2.12, 1.69, 7.74, repro,
2006-09-23,0.64, -1.17, 13.77, 2.11, 1.65, 7.62, repro,
2006-09-24,0.91, -1.11, 8.13, 2.20, 1.74, 8.11, repro,
2006-09-25,0.43, -1.24, 11.09, 2.11, 1.66, 7.68, repro,
2006-09-26,0.18, -1.96, 6.42, 2.11, 1.69, 7.80, repro,
2006-09-27,0.45, -1.58, 5.50, 2.09, 1.68, 7.56, repro,
2006-09-28,0.44, -1.57, 7.94, 2.08, 1.66, 7.56, repro,
2006-09-29,-0.65, -1.44, 14.14, 2.07, 1.62, 7.46, repro,
2006-09-30,-0.11, -1.60, 20.63, 2.04, 1.67, 7.68, repro,
2006-10-01,0.98, -1.53, 13.41, 2.07, 1.70, 7.75, repro,
2006-10-02,0.04, -1.94, 5.29, 2.07, 1.70, 7.63, repro,
2006-10-03,-0.66, -1.70, 3.25, 2.16, 1.74, 7.87, repro,
2006-10-04,1.05, -1.73, 5.80, 2.07, 1.64, 7.58, repro,
2006-10-05,-0.52, -1.85, 10.82, 2.08, 1.67, 7.81, repro,
2006-10-06,-1.09, -1.49, 5.84, 2.10, 1.69, 7.92, repro,
2006-10-07,-0.33, -1.47, 0.23, 2.11, 1.72, 8.02, repro,
2006-10-08,0.01, -1.55, 3.35, 2.09, 1.70, 7.85, repro,
2006-10-09,0.41, -2.46, 6.94, 2.10, 1.70, 7.84, repro,
2006-10-10,0.11, -1.46, -0.10, 2.06, 1.64, 7.62, repro,
2006-10-11,-2.45, -1.32, 9.09, 2.02, 1.65, 7.56, repro,
2006-10-12,-1.12, -1.57, 15.16, 2.06, 1.64, 7.52, repro,
2006-10-13,-0.37, -1.88, 14.82, 2.12, 1.70, 7.80, repro,
2006-10-14,0.36, -1.88, 13.41, 2.02, 1.64, 7.56, repro,
2006-10-15,-0.83, -1.60, 20.89, 2.06, 1.69, 7.80, repro,
2006-10-16,-0.97, -1.77, 21.75, 2.07, 1.66, 7.65, repro,
2006-10-17,-0.61, -1.39, 18.64, 2.19, 1.70, 8.24, repro,
2006-10-18,1.20, -0.96, 13.31, 2.10, 1.71, 7.93, repro,
2006-10-19,0.37, -1.52, 6.72, 2.18, 1.70, 8.20, repro,
2006-10-20,-0.54, -1.59, 8.66, 2.24, 1.81, 9.00, repro,
2006-10-21,-0.92, -1.55, 11.87, 2.22, 1.80, 8.41, repro,
2006-10-22,-2.23, -1.40, 9.54, 2.04, 1.69, 7.81, repro,
2006-10-23,-0.29, -1.48, 9.52, 2.10, 1.74, 8.17, repro,
2006-10-24,-0.11, -2.67, 6.00, 2.08, 1.69, 7.78, repro,
2006-10-25,-0.46, -0.32, 12.36, 2.10, 1.72, 7.92, repro,
2006-10-26,-0.10, -1.51, 13.27, 2.05, 1.70, 7.86, repro,
2006-10-27,0.33, -1.25, 8.98, 2.04, 1.73, 7.85, repro,
2006-10-28,-1.27, -0.49, 5.86, 2.09, 1.67, 7.87, repro,
2006-10-29,-1.25, -0.81, 12.98, 2.00, 1.64, 7.57, repro,
2006-10-30,-0.33, -1.22, 12.53, 2.00, 1.64, 7.54, repro,
2006-10-31,-1.19, -0.98, 15.09, 1.99, 1.62, 7.49, repro,
2006-11-01,0.59, -1.57, 14.86, 2.01, 1.62, 7.54, repro,
2006-11-02,-1.13, -0.20, 15.85, 2.08, 1.79, 7.98, repro,
2006-11-03,0.01, -1.07, 9.58, 2.07, 1.74, 8.14, repro,
2006-11-04,0.06, -1.87, 5.11, 2.08, 1.68, 7.81, repro,
2006-11-05,-0.56, -1.89, 4.91, 2.15, 1.79, 8.26, repro,
2006-11-06,-0.55, -1.39, 6.50, 2.02, 1.64, 7.60, repro,
2006-11-07,-0.10, -0.89, 7.05, 2.12, 1.75, 8.00, repro,
2006-11-08,-1.04, -1.33, 13.75, 2.08, 1.70, 7.92, repro,
2006-11-09,0.57, -0.31, 7.07, 2.21, 1.81, 8.38, repro,
2006-11-10,-0.65, -0.97, 5.15, 2.09, 1.66, 7.74, repro,
2006-11-11,-0.33, -0.15, 7.34, 2.06, 1.67, 7.72, repro,
2006-11-12,-0.49, -1.68, 9.78, 2.14, 1.74, 7.93, repro,
2006-11-13,0.55, -0.67, 8.56, 2.08, 1.68, 7.72, repro,
2006-11-14,-0.62, -2.78, 14.61, 1.99, 1.63, 7.57, repro,
2006-11-15,0.69, -0.62, 3.06, 2.02, 1.65, 7.61, repro,
2006-11-16,-0.65, -0.88, 14.22, 2.05, 1.67, 7.63, repro,
2006-11-17,0.45, -2.06, 6.20, 1.95, 1.58, 7.21, repro,
2006-11-18,-1.05, -1.27, 7.10, 1.95, 1.59, 7.22, repro,
2006-11-19,-0.63, -1.42, -1.08, 1.96, 1.60, 7.32, repro,
2006-11-20,-0.83, -1.92, -1.26, 1.97, 1.62, 7.41, repro,
2006-11-21,-1.57, -2.04, 14.19, 1.96, 1.61, 7.35, repro,
2006-11-22,-0.29, -2.32, 3.55, 1.96, 1.59, 7.26, repro,
2006-11-23,0.22, -1.75, 1.35, 2.00, 1.64, 7.53, repro,
2006-11-24,0.08, -1.75, 6.38, 2.05, 1.69, 7.77, repro,
2006-11-25,0.29, -1.46, 2.02, 2.06, 1.67, 7.65, repro,
2006-11-26,-1.19, -0.55, 3.67, 2.11, 1.73, 7.95, repro,
2006-11-27,-0.65, -1.10, 7.40, 1.98, 1.61, 7.36, repro,
2006-11-28,0.26, -1.01, 5.24, 2.02, 1.64, 7.48, repro,
2006-11-29,-0.50, -1.07, 3.77, 1.95, 1.60, 7.27, repro,
2006-11-30,-0.15, -0.55, 3.15, 1.96, 1.61, 7.31, repro,
2006-12-01,0.93, -0.21, -4.37, 2.03, 1.67, 7.62, repro,
2006-12-02,-0.53, -1.15, -5.82, 2.04, 1.65, 7.54, repro,
2006-12-03,0.58, -0.80, 4.78, 2.08, 1.72, 7.76, repro,
2006-12-04,0.26, -0.52, -1.06, 2.00, 1.61, 7.35, repro,
2006-12-05,-0.12, -1.16, 1.91, 1.98, 1.68, 7.44, repro,
2006-12-06,0.22, -2.08, 3.39, 1.99, 1.69, 7.52, repro,
2006-12-07,0.09, -2.31, 2.30, 1.99, 1.69, 7.59, repro,
2006-12-08,-0.23, -1.19, 9.37, 2.07, 1.73, 7.70, repro,
2006-12-09,0.27, -1.73, 11.02, 2.03, 1.69, 7.55, repro,
2006-12-10,0.01, -1.22, 13.03, 2.02, 1.69, 7.58, repro,
2006-12-11,-0.79, -2.50, 7.81, 1.96, 1.63, 7.38, repro,
2006-12-12,1.13, -1.53, -4.67, 2.04, 1.70, 7.67, repro,
2006-12-13,1.69, -2.19, 4.22, 1.97, 1.71, 7.58, repro,
2006-12-14,0.44, -1.32, 7.11, 1.96, 1.64, 7.42, repro,
2006-12-15,0.25, -2.51, 8.68, 2.04, 1.75, 7.77, repro,
2006-12-16,0.21, -1.21, 4.23, 2.05, 1.73, 7.68, repro,
2006-12-17,-0.13, -1.65, 0.93, 2.07, 1.82, 8.03, repro,
2006-12-18,0.34, -0.52, 2.13, 2.16, 1.90, 8.41, repro,
2006-12-19,0.80, -1.15, 6.94, 2.08, 1.88, 8.13, repro,
2006-12-20,0.32, -1.41, -0.24, 2.08, 1.87, 8.02, repro,
2006-12-21,1.04, -1.54, -0.83, 1.96, 1.73, 7.52, repro,
2006-12-22,0.81, -1.59, 5.22, 2.10, 1.87, 8.19, repro,
2006-12-23,0.32, -1.18, 1.93, 2.05, 1.81, 7.98, repro,
2006-12-24,0.10, -1.39, 3.36, 1.96, 1.65, 7.47, repro,
2006-12-25,0.22, -0.62, 1.85, 2.01, 1.75, 7.64, repro,
2006-12-26,1.75, -0.21, 8.00, 2.01, 1.72, 7.67, repro,
2006-12-27,-2.61, -2.30, 6.23, 2.08, 1.77, 7.94, repro,
2006-12-28,1.14, -0.67, 7.61, 2.32, 2.18, 9.46, repro,
2006-12-29,0.73, -2.16, -8.39, 2.04, 1.76, 7.89, repro,
2006-12-30,2.03, -1.28, -1.12, 2.03, 1.74, 7.76, repro,
2006-12-31,1.93, -1.30, 0.91, 2.18, 1.89, 8.40, repro,
2007-01-01,1.22, -0.89, 2.56, 2.24, 2.03, 8.74, repro,
2007-01-02,1.10, -0.71, 1.20, 2.14, 1.91, 8.33, repro,
2007-01-03,0.59, -2.03, 3.62, 2.00, 1.79, 7.81, repro,
2007-01-04,0.66, -1.99, 12.20, 1.98, 1.71, 7.57, repro,
2007-01-05,1.50, -3.21, 3.41, 2.03, 1.77, 7.88, repro,
2007-01-06,2.56, -1.39, -5.19, 1.98, 1.70, 7.59, repro,
2007-01-07,1.61, -0.91, -3.08, 1.99, 1.64, 7.43, repro,
2007-01-08,0.52, -0.82, -5.11, 2.01, 1.69, 7.61, repro,
2007-01-09,0.79, -1.28, -0.33, 1.98, 1.64, 7.34, repro,
2007-01-10,-0.23, -1.47, 1.55, 2.00, 1.64, 7.42, repro,
2007-01-11,0.25, -1.24, 3.87, 2.04, 1.64, 7.52, repro,
2007-01-12,0.49, -2.03, -0.31, 1.96, 1.59, 7.31, repro,
2007-01-13,1.01, -0.62, -4.37, 1.92, 1.60, 7.27, repro,
2007-01-14,0.49, -0.76, -3.51, 1.91, 1.59, 7.13, repro,
2007-01-15,1.36, -1.16, -4.20, 1.92, 1.58, 7.15, repro,
2007-01-16,1.07, -0.81, -3.52, 1.96, 1.60, 7.25, repro,
2007-01-17,0.87, -1.08, -5.79, 1.96, 1.64, 7.44, repro,
2007-01-18,0.63, -2.13, -6.20, 2.00, 1.67, 7.51, repro,
2007-01-19,0.64, -1.10, -1.87, 1.98, 1.61, 7.50, repro,
2007-01-20,0.42, 0.43, -1.02, 2.02, 1.64, 7.57, repro,
2007-01-21,1.08, -0.50, 3.35, 1.96, 1.64, 7.33, repro,
2007-01-22,1.28, -0.34, 0.42, 1.92, 1.57, 7.08, repro,
2007-01-23,1.05, -0.81, -7.13, 1.93, 1.60, 7.21, repro,
2007-01-24,-0.49, -1.22, -1.19, 1.90, 1.58, 7.10, repro,
2007-01-25,0.56, -0.79, -6.46, 1.96, 1.63, 7.19, repro,
2007-01-26,-1.29, -1.43, 0.50, 1.91, 1.59, 7.05, repro,
2007-01-27,-0.30, -0.67, 0.39, 1.92, 1.57, 7.02, repro,
2007-01-28,1.11, -0.55, -0.89, 1.91, 1.56, 6.98, repro,
2007-01-29,-0.56, -0.86, -2.44, 1.91, 1.57, 7.05, repro,
2007-01-30,0.27, -0.64, 3.73, 1.89, 1.57, 6.96, repro,
2007-01-31,-0.57, -1.65, 6.29, 1.91, 1.57, 7.02, repro,
2007-02-01,-0.91, 0.52, 4.64, 1.94, 1.62, 7.21, repro,
2007-02-02,-0.04, -0.33, 5.35, 1.96, 1.59, 7.24, repro,
2007-02-03,0.49, -0.65, -5.66, 1.96, 1.61, 7.29, repro,
2007-02-04,-0.35, -0.01, 3.25, 1.91, 1.58, 7.04, repro,
2007-02-05,-0.23, -0.48, 0.18, 1.89, 1.57, 6.98, repro,
2007-02-06,-0.95, -0.15, -2.14, 1.95, 1.58, 7.10, repro,
2007-02-07,1.65, -1.55, 8.89, 1.94, 1.59, 7.13, repro,
2007-02-08,1.36, -1.67, -0.75, 2.06, 1.71, 7.60, repro,
2007-02-09,2.72, 0.64, 3.05, 1.94, 1.61, 7.18, repro,
2007-02-10,2.84, 0.35, 4.84, 1.92, 1.58, 7.06, repro,
2007-02-11,1.35, -0.76, 7.32, 1.96, 1.62, 7.16, repro,
2007-02-12,1.09, -0.08, -2.99, 1.92, 1.57, 7.03, repro,
2007-02-13,0.25, -1.18, 2.73, 1.92, 1.59, 7.11, repro,
2007-02-14,0.48, 0.45, 0.87, 1.92, 1.59, 7.08, repro,
2007-02-15,2.99, -0.76, -4.65, 1.92, 1.58, 7.08, repro,
2007-02-16,1.34, -0.58, 2.59, 1.92, 1.58, 7.06, repro,
2007-02-17,0.35, -0.33, 5.80, 1.96, 1.63, 7.21, repro,
2007-02-18,0.45, -0.62, 8.51, 1.92, 1.58, 7.13, repro,
2007-02-19,0.01, -1.56, 9.83, 1.92, 1.59, 7.15, repro,
2007-02-20,-1.11, -1.35, 8.83, 1.91, 1.58, 7.08, repro,
2007-02-21,1.63, 0.25, 7.59, 1.91, 1.57, 7.06, repro,
2007-02-22,0.36, -0.46, 7.43, 1.97, 1.64, 7.32, repro,
2007-02-23,1.15, -0.55, 13.79, 2.17, 1.72, 7.87, repro,
2007-02-24,0.19, -0.41, 6.25, 1.93, 1.59, 7.15, repro,
2007-02-25,-0.95, -2.07, 4.17, 1.91, 1.58, 7.09, repro,
2007-02-26,-0.89, -0.02, 7.48, 1.92, 1.58, 7.11, repro,
2007-02-27,-1.65, -0.28, 13.34, 1.93, 1.60, 7.16, repro,
2007-02-28,-1.54, -1.08, 9.90, 1.94, 1.60, 7.24, repro,
2007-03-01,0.56, 0.84, 7.80, 1.99, 1.66, 7.44, repro,
2007-03-02,-0.04, 0.22, -1.34, 1.98, 1.64, 7.36, repro,
2007-03-03,0.24, -0.32, -5.24, 1.95, 1.63, 7.36, repro,
2007-03-04,0.90, 0.93, 0.26, 1.94, 1.63, 7.27, repro,
2007-03-05,0.42, 0.03, -0.45, 1.99, 1.67, 7.45, repro,
2007-03-06,0.27, -0.23, 0.93, 2.02, 1.68, 7.50, repro,
2007-03-07,0.00, 0.07, 7.14, 1.95, 1.63, 7.30, repro,
2007-03-08,-0.62, -0.76, 6.70, 1.95, 1.63, 7.30, repro,
2007-03-09,-0.17, -0.08, -4.03, 1.97, 1.64, 7.40, repro,
2007-03-10,-0.31, -0.29, 5.93, 2.00, 1.67, 7.55, repro,
2007-03-11,0.06, -0.21, -0.61, 1.97, 1.64, 7.38, repro,
2007-03-12,0.34, -0.49, 0.22, 2.00, 1.68, 7.67, repro,
2007-03-13,-0.94, -0.22, 3.74, 1.92, 1.59, 7.17, repro,
2007-03-14,-0.49, 0.36, 10.05, 1.93, 1.59, 7.18, repro,
2007-03-15,-0.66, 0.65, 5.20, 1.99, 1.65, 7.43, repro,
2007-03-16,0.76, -0.25, 2.90, 2.02, 1.67, 7.50, repro,
2007-03-17,-0.07, -0.17, 6.11, 1.94, 1.58, 7.13, repro,
2007-03-18,-0.89, 0.61, 12.52, 1.95, 1.58, 7.20, repro,
2007-03-19,-1.35, 0.17, 5.00, 1.98, 1.63, 7.33, repro,
2007-03-20,-1.26, -0.80, 11.15, 2.02, 1.65, 7.45, repro,
2007-03-21,-1.01, 0.03, 8.33, 2.03, 1.65, 7.46, repro,
2007-03-22,-1.38, -0.74, 8.47, 1.93, 1.57, 7.18, repro,
2007-03-23,0.21, -1.43, 9.26, 1.97, 1.62, 7.37, repro,
2007-03-24,-0.40, -1.89, 9.16, 1.98, 1.62, 7.41, repro,
2007-03-25,-0.91, -0.28, 12.53, 1.93, 1.57, 7.17, repro,
2007-03-26,-0.18, -1.06, 10.07, 1.93, 1.56, 7.03, repro,
2007-03-27,0.28, -1.93, 7.41, 2.04, 1.60, 7.36, repro,
2007-03-28,-1.36, -0.95, 9.47, 1.99, 1.60, 7.31, repro,
2007-03-29,-0.92, -0.37, 4.96, 1.98, 1.63, 7.50, repro,
2007-03-30,-0.13, -0.49, 0.20, 1.95, 1.58, 7.22, repro,
2007-03-31,-1.61, 0.67, 7.98, 1.95, 1.61, 7.24, repro,
2007-04-01,-0.43, 0.28, 5.15, 1.92, 1.56, 7.00, repro,
2007-04-02,-1.49, -0.38, 4.76, 1.93, 1.58, 7.13, repro,
2007-04-03,-0.37, -1.06, 2.56, 1.98, 1.63, 7.37, repro,
2007-04-04,0.43, -0.37, 3.83, 2.12, 1.80, 7.83, repro,
2007-04-05,-1.13, -0.80, 1.33, 2.10, 1.78, 7.74, repro,
2007-04-06,-1.48, -0.74, 6.79, 2.03, 1.68, 7.49, repro,
2007-04-07,-0.28, -1.03, 9.25, 1.96, 1.60, 7.15, repro,
2007-04-08,-0.99, -2.02, 4.76, 1.96, 1.60, 7.26, repro,
2007-04-09,0.71, 0.06, 3.64, 1.95, 1.57, 7.11, repro,
2007-04-10,0.85, -1.15, 8.30, 2.00, 1.62, 7.37, repro,
2007-04-11,-0.25, -1.26, 12.21, 1.94, 1.57, 7.09, repro,
2007-04-12,-0.56, -0.78, 12.77, 1.93, 1.58, 7.11, repro,
2007-04-13,0.08, -0.16, 5.69, 1.94, 1.58, 7.12, repro,
2007-04-14,1.18, -0.20, 4.73, 2.00, 1.63, 7.34, repro,
2007-04-15,-2.24, -0.44, 4.21, 1.95, 1.57, 7.19, repro,
2007-04-16,-0.59, -0.40, 11.37, 1.95, 1.57, 7.16, repro,
2007-04-17,-0.97, -2.09, 3.60, 1.93, 1.57, 7.14, repro,
2007-04-18,0.22, -0.77, 7.57, 1.94, 1.57, 7.11, repro,
2007-04-19,-0.05, -1.56, 5.29, 1.94, 1.57, 7.13, repro,
2007-04-20,0.15, -1.19, 10.65, 2.01, 1.62, 7.32, repro,
2007-04-21,-0.71, -0.98, 9.84, 1.95, 1.57, 7.19, repro,
2007-04-22,0.57, -1.32, 11.71, 1.98, 1.61, 7.26, repro,
2007-04-23,-0.22, -0.16, 6.87, 1.97, 1.59, 7.21, repro,
2007-04-24,-0.47, -0.63, 7.94, 1.99, 1.60, 7.31, repro,
2007-04-25,-0.71, -0.39, 4.07, 1.97, 1.60, 7.26, repro,
2007-04-26,-0.20, -1.39, 8.11, 1.97, 1.58, 7.27, repro,
2007-04-27,-0.44, -0.99, 8.98, 1.95, 1.57, 7.16, repro,
2007-04-28,-0.34, -0.52, 4.96, 1.95, 1.57, 7.17, repro,
2007-04-29,-0.35, -1.70, 3.14, 1.95, 1.56, 7.15, repro,
2007-04-30,-0.64, -0.83, 5.30, 1.95, 1.57, 7.21, repro,
2007-05-01,-0.87, -0.46, 2.06, 1.97, 1.57, 7.25, repro,
2007-05-02,-0.99, -1.21, 4.96, 2.02, 1.57, 7.36, repro,
2007-05-03,-0.01, -1.37, 2.87, 2.08, 1.62, 7.54, repro,
2007-05-04,-0.47, -1.16, 4.54, 1.95, 1.56, 7.16, repro,
2007-05-05,-0.35, -0.89, 1.73, 1.99, 1.61, 7.33, repro,
2007-05-06,1.34, -0.06, 2.11, 1.96, 1.55, 7.19, repro,
2007-05-07,0.81, -0.40, 9.27, 1.97, 1.55, 7.17, repro,
2007-05-08,-0.72, -1.20, 10.46, 1.97, 1.56, 7.19, repro,
2007-05-09,0.41, -0.96, 4.77, 1.96, 1.56, 7.17, repro,
2007-05-10,-0.11, -1.63, 1.55, 2.14, 1.70, 7.93, repro,
2007-05-11,0.04, -0.99, 4.27, 2.10, 1.66, 7.78, repro,
2007-05-12,0.92, -0.59, 5.28, 1.96, 1.55, 7.13, repro,
2007-05-13,1.26, -0.26, 5.21, 2.02, 1.60, 7.32, repro,
2007-05-14,0.16, -1.26, 3.05, 2.01, 1.59, 7.32, repro,
2007-05-15,-0.48, -1.79, 0.71, 1.98, 1.57, 7.20, repro,
2007-05-16,0.23, -1.46, 3.81, 1.97, 1.57, 7.21, repro,
2007-05-17,0.67, -1.22, 6.35, 1.98, 1.60, 7.34, repro,
2007-05-18,0.24, -1.09, 6.57, 2.08, 1.66, 7.55, repro,
2007-05-19,0.46, -0.44, 5.47, 2.00, 1.60, 7.26, repro,
2007-05-20,0.43, -1.92, 6.42, 2.10, 1.70, 7.69, repro,
2007-05-21,-0.92, -1.81, 6.90, 2.01, 1.60, 7.30, repro,
2007-05-22,0.00, -1.36, 10.06, 1.98, 1.58, 7.17, repro,
2007-05-23,0.48, -1.65, 8.26, 2.01, 1.58, 7.28, repro,
2007-05-24,-0.33, -1.98, 3.74, 2.16, 1.73, 7.82, repro,
2007-05-25,-1.39, -1.52, 8.00, 2.03, 1.61, 7.28, repro,
2007-05-26,-1.40, -1.28, 7.26, 2.03, 1.61, 7.29, repro,
2007-05-27,-0.73, -0.80, 11.21, 2.04, 1.66, 7.32, repro,
2007-05-28,-0.72, -0.76, 5.11, 2.00, 1.60, 7.21, repro,
2007-05-29,-0.42, -1.73, 4.77, 2.01, 1.57, 7.16, repro,
2007-05-30,-0.72, -1.13, 5.54, 2.05, 1.59, 7.31, repro,
2007-05-31,-0.96, -1.52, 4.45, 2.07, 1.64, 7.41, repro,
2007-06-01,-2.15, -1.43, 10.89, 1.98, 1.56, 7.06, repro,
2007-06-02,0.22, -1.63, 8.31, 1.96, 1.56, 7.07, repro,
2007-06-03,-0.35, -0.92, 8.94, 1.96, 1.57, 7.09, repro,
2007-06-04,-0.53, -0.73, 5.83, 2.00, 1.57, 7.20, repro,
2007-06-05,0.06, -0.10, 4.54, 2.05, 1.60, 7.35, repro,
2007-06-06,-0.25, -1.03, 6.15, 1.98, 1.57, 7.12, repro,
2007-06-07,-0.32, -1.19, 13.53, 1.97, 1.56, 7.08, repro,
2007-06-08,-0.02, -0.92, 5.85, 1.98, 1.58, 7.17, repro,
2007-06-09,-1.12, -0.99, 5.18, 2.01, 1.62, 7.30, repro,
2007-06-10,0.17, -2.37, 1.25, 2.02, 1.59, 7.28, repro,
2007-06-11,-1.00, -1.39, 6.84, 2.01, 1.66, 7.30, repro,
2007-06-12,-0.67, -1.23, 3.04, 2.01, 1.67, 7.31, repro,
2007-06-13,0.34, -1.37, 0.64, 2.03, 1.62, 7.28, repro,
2007-06-14,0.14, -1.29, 0.00, 1.98, 1.58, 7.17, repro,
2007-06-15,0.10, -0.26, 5.32, 1.99, 1.58, 7.21, repro,
2007-06-16,0.42, -1.33, 2.91, 1.97, 1.57, 7.09, repro,